[[{"header":{"parameterUnit":"m.s-1","parameterCategory":1,"la1":30.2991,"la2":30.254,"lo1":-89.0895,"lo2":-89.0444,"dy":0.0017,"dx":0.0017,"nx":28,"ny":28,"refTime":"2025-04-23T03:00:00:Z","depth":0,"parameterNumber":2,"parameterNumberName":"U-component_of_WINDS"},"data":[0,0,0,0,0,0,0,0,0,0,0,0,0,0,0,0,0,0,0,0,0,0,0,0,0,0,0,0,0,0,0,0,0,0,0,0,0,0,0,0,0,0,0,0,0,0,0,0,0,0,0,0,0,0,0,0,0,0,-3.2184,-3.2184,0,-3.2181,-3.2181,-3.2181,-3.2107,-3.2105,-3.2103,-3.2101,-3.2097,-3.2099,-3.21,0,0,0,0,0,0,0,0,0,0,0,0,0,-3.2126,-3.2128,-3.2184,-3.2184,-3.2184,-3.2181,-3.2181,-3.2181,-3.2107,-3.2105,-3.2103,-3.21,-3.2096,-3.2098,-3.21,0,0,0,0,0,0,0,0,0,0,0,0,0,-3.214,-3.2128,-3.2184,-3.2147,-3.2144,-3.2181,-3.2181,-3.2181,-3.2108,-3.2105,-3.2102,-3.2099,-3.2096,-3.2098,-3.2101,-3.2173,0,0,-3.2108,-3.2109,0,0,0,0,0,0,0,0,-3.214,-3.2142,-3.2153,-3.215,-3.2146,-3.2141,-3.2159,-3.2178,-3.2108,-3.2121,-3.2101,-3.2098,-3.2114,-3.2115,-3.2121,-3.2173,-3.2173,-3.2109,-3.211,-3.2111,-3.2112,0,0,0,0,0,0,0,-3.2139,-3.2142,-3.2183,-3.2153,-3.2149,-3.2131,-3.2129,-3.2162,-3.2134,-3.212,-3.2115,-3.2115,-3.2112,-3.2118,-3.212,-3.2173,-3.2108,-3.2111,-3.2112,-3.2113,-3.2286,-3.2289,0,0,0,0,0,0,-3.2143,-3.2142,-3.2183,-3.2183,-3.2136,-3.2134,-3.2133,-3.2146,-3.2133,-3.2129,-3.2118,-3.2112,-3.2115,-3.2117,-3.2119,-3.2203,-3.2111,-3.2113,-3.2115,-3.2283,-3.2286,-3.229,0,0,0,0,0,0,-3.2142,-3.2147,-3.2183,-3.2161,-3.2164,-3.2138,-3.2153,-3.2147,-3.2154,-3.2132,-3.2126,-3.213,-3.2113,-3.2116,-3.2161,-3.2202,-3.2115,-3.2117,-3.2279,-3.2284,-3.2288,-3.2372,0,0,0,0,0,0,-3.2141,-3.2147,-3.2175,-3.2162,-3.2166,-3.2225,-3.2156,-3.2149,-3.2158,-3.2151,-3.2141,-3.2137,-3.2111,-3.2157,-3.2163,-3.2204,-3.2119,-3.2275,-3.2281,-3.2287,-3.2365,-3.2379,-3.239,0,0,0,0,0,-3.2139,-3.2198,-3.2176,-3.2182,-3.2199,-3.2227,-3.2229,-3.2198,-3.2162,-3.2189,-3.2175,-3.2137,-3.2197,-3.2163,-3.2168,-3.2211,-3.2272,-3.2279,-3.2286,-3.236,-3.2376,-3.239,0,0,0,0,0,0,-3.2215,-3.2195,-3.2171,-3.2228,-3.223,-3.2215,-3.2247,-3.2217,-3.2229,-3.2221,-3.2182,-3.2181,-3.2232,-3.2226,-3.2188,-3.2281,-3.2228,-3.2237,-3.2282,-3.2298,-3.231,-3.2309,-3.2121,0,0,0,0,0,-3.2239,-3.2263,-3.2245,-3.2297,-3.2299,-3.2274,-3.2285,-3.2261,-3.2261,-3.2262,-3.2251,-3.2252,-3.2271,-3.2284,-3.2301,-3.2365,-3.2362,-3.2397,-3.241,-3.242,-3.2427,-3.2461,-3.2476,-3.2312,-3.2312,-3.2312,0,0,-3.2287,-3.2279,-3.2297,-3.2312,-3.2311,-3.2337,-3.2275,-3.2305,-3.2324,-3.2266,-3.2307,-3.23,-3.2299,-3.2354,-3.2378,-3.2351,-3.2472,-3.2429,-3.2438,-3.2439,-3.2469,-3.2485,-3.2499,-3.2317,-3.2316,-3.2316,0,0,-3.2388,-3.2385,-3.2428,-3.2429,-3.2428,-3.2411,-3.2422,-3.2412,-3.2404,-3.2446,-3.2403,-3.2426,-3.246,-3.2461,-3.2466,-3.2571,-3.2536,-3.2577,-3.2642,-3.2675,-3.2688,-3.2699,-3.2735,-3.2749,-3.2585,-3.2585,-3.2585,0,-3.2448,-3.2486,-3.2454,-3.2487,-3.2495,-3.2446,-3.2489,-3.2491,-3.2496,-3.2502,-3.2473,-3.2515,-3.2511,-3.2565,-3.2591,-3.2597,-3.2608,-3.2577,-3.2689,-3.27,-3.271,-3.2744,-3.2758,-3.259,-3.2589,-3.2589,-3.2588,0,-3.2559,-3.2586,-3.2621,-3.2628,-3.264,-3.2678,-3.2652,-3.2669,-3.2645,-3.2632,-3.2675,-3.2669,-3.2683,-3.2695,-3.2672,-3.2747,-3.273,-3.2696,-3.2641,-3.2731,-3.2762,-3.2775,-3.2597,-3.2595,-3.2594,-3.2593,0,0,-3.2704,-3.2695,-3.2708,-3.2711,-3.2708,-3.2728,-3.2765,-3.278,-3.2794,-3.28,-3.2829,-3.2861,-3.2829,-3.2835,-3.2812,-3.2842,-3.2924,-3.2803,-3.2802,-3.2824,-3.3005,-3.303,-3.3046,-3.2903,-3.2905,-3.2907,-3.3005,0,-3.2801,-3.2863,-3.2837,-3.2901,-3.2926,-3.2881,-3.2913,-3.2914,-3.2904,-3.2923,-3.2911,-3.2933,-3.289,-3.2893,-3.2921,-3.2908,-3.296,-3.2901,-3.2928,-3.293,-3.2928,-3.3062,-3.3088,-3.318,-3.3017,-3.3019,-3.3021,0,-3.2921,-3.2933,-3.3,-3.2994,-3.3003,-3.3032,-3.3044,-3.3064,-3.3065,-3.3055,-3.3064,-3.3035,-3.307,-3.3019,-3.3067,-3.3028,-3.3038,-3.3034,-3.3037,-3.3036,-3.2979,-3.3064,-3.3209,-3.3223,-3.304,-3.3038,-3.3037,0,-3.3019,-3.3052,-3.3096,-3.31,-3.3094,-3.3116,-3.3114,-3.3113,-3.3124,-3.3135,-3.3142,-3.3157,-3.3165,-3.3177,-3.3153,-3.3118,-3.3205,-3.3152,-3.3197,-3.3198,-3.3215,-3.3214,-3.3362,-3.3225,-3.3225,-3.3225,-3.3225,0,-3.3128,-3.3171,-3.314,-3.3167,-3.3214,-3.3184,-3.3231,-3.3224,-3.3224,-3.3249,-3.3212,-3.3236,-3.3204,-3.3226,-3.3208,-3.325,-3.3254,-3.3247,-3.3241,-3.3249,-3.325,-3.3253,-3.3245,-3.3229,-3.3228,-3.3227,-3.3226,0,-3.3244,-3.3225,-3.327,-3.3262,-3.3261,-3.3296,-3.3288,-3.3313,-3.3301,-3.3333,-3.3339,-3.3319,-3.3343,-3.3321,-3.3343,-3.3331,-3.3387,-3.3373,-3.3387,-3.3382,-3.3428,-3.3423,-3.3582,-3.3601,-3.3454,-3.3455,-3.3457,0,-3.3314,-3.3345,-3.3341,-3.3356,-3.3357,-3.338,-3.3392,-3.3365,-3.3379,-3.3384,-3.3408,-3.3429,-3.3443,-3.3483,-3.347,-3.3487,-3.3472,-3.3527,-3.3474,-3.3481,-3.3471,-3.3469,-3.3471,-3.3537,-3.3538,-3.354,-3.3541,0,-3.3439,-3.3429,-3.3447,-3.3463,-3.3478,-3.3489,-3.3497,-3.3511,-3.3484,-3.3501,-3.3525,-3.3537,-3.356,-3.3581,-3.3594,-3.3592,-3.3562,-3.3559,-3.3569,-3.3576,-3.3582,-3.3578,-3.3414,-3.3554,-3.3553,-3.3552,-3.3551,-3.3551,-3.3532,-3.3558,-3.356,-3.3582,-3.3586,-3.3595,-3.3618,-3.3609,-3.3629,-3.3646,-3.363,-3.3659,-3.3661,-3.3676,-3.3678,-3.37,-3.3677,-3.3693,-3.3697,-3.3701,-3.3707,-3.3581,-3.3703,-3.3702,-3.3702,-3.3702,-3.3701,0,-3.3654,-3.3654,-3.3675,-3.3688,-3.3705,-3.3678,-3.3686,-3.3702,-3.3728,-3.3733,-3.3749,-3.3777,-3.3797,-3.3788,-3.3806,-3.3825,-3.3812,-3.3831,-3.3827,-3.3827,-3.3727,-3.3715,-3.3841,-3.3841,-3.3841,-3.3841,-3.3841,-3.3841,-3.3719,-3.3762,-3.3753,-3.3798,-3.3797,-3.3825,-3.3832,-3.3841,-3.3844,-3.3877,-3.3895,-3.3889,-3.3888,-3.3906,-3.3923,-3.392,-3.3927,-3.3951,-3.3943,-3.3848,-3.3835,-3.3821,-3.381,-3.3953,-3.3954,-3.4041,-3.4041,-3.4042]},{"header":{"parameterUnit":"m.s-1","parameterCategory":1,"la1":30.2991,"la2":30.254,"lo1":-89.0895,"lo2":-89.0444,"dy":0.0017,"dx":0.0017,"nx":28,"ny":28,"refTime":"2025-04-23T03:00:00:Z","depth":0,"parameterNumber":3,"parameterNumberName":"V-component_of_WINDS"},"data":[0,0,0,0,0,0,0,0,0,0,0,0,0,0,0,0,0,0,0,0,0,0,0,0,0,0,0,0,0,0,0,0,0,0,0,0,0,0,0,0,0,0,0,0,0,0,0,0,0,0,0,0,0,0,0,0,0,0,0.6659,0.6658,0,0.6597,0.6596,0.6596,0.6534,0.6533,0.6533,0.6532,0.6467,0.6466,0.6465,0,0,0,0,0,0,0,0,0,0,0,0,0,0.6723,0.6722,0.6659,0.6658,0.6657,0.6597,0.6596,0.6595,0.6534,0.6533,0.6532,0.6531,0.6467,0.6466,0.6465,0,0,0,0,0,0,0,0,0,0,0,0,0,0.6682,0.6722,0.6659,0.662,0.6615,0.6597,0.6596,0.6595,0.6534,0.6533,0.6532,0.6531,0.6468,0.6466,0.6465,0.648,0,0,0.646,0.646,0,0,0,0,0,0,0,0,0.6684,0.6679,0.6626,0.6622,0.6618,0.6572,0.6595,0.6557,0.6535,0.6565,0.6532,0.653,0.6503,0.6498,0.6489,0.6477,0.6474,0.646,0.6459,0.6459,0.6458,0,0,0,0,0,0,0,0.6687,0.6682,0.6634,0.6625,0.662,0.6605,0.6598,0.6587,0.6541,0.6562,0.6558,0.6551,0.65,0.6491,0.6487,0.6473,0.646,0.6459,0.6458,0.6457,0.6471,0.6472,0,0,0,0,0,0,0.6696,0.6685,0.6636,0.6632,0.6649,0.6605,0.6596,0.6588,0.6541,0.6533,0.6553,0.6549,0.6494,0.6489,0.6485,0.65,0.6459,0.6457,0.6456,0.647,0.6471,0.6473,0,0,0,0,0,0,0.6698,0.6692,0.6639,0.6657,0.6649,0.6605,0.6596,0.6587,0.6578,0.6534,0.6525,0.6552,0.6493,0.6487,0.6482,0.6497,0.6457,0.6455,0.6468,0.647,0.6472,0.6531,0,0,0,0,0,0,0.67,0.6693,0.6699,0.6658,0.6649,0.6637,0.6597,0.6587,0.6576,0.657,0.6531,0.6523,0.6491,0.6484,0.6481,0.6494,0.6454,0.6467,0.6469,0.6471,0.6527,0.6535,0.6541,0,0,0,0,0,0.6702,0.6717,0.6699,0.6694,0.6655,0.6638,0.6633,0.6597,0.6577,0.6582,0.6554,0.6524,0.6496,0.6484,0.6479,0.6493,0.6466,0.6469,0.6471,0.6524,0.6533,0.6541,0,0,0,0,0,0,0.676,0.6711,0.6691,0.6693,0.6671,0.6628,0.6633,0.6607,0.6589,0.6585,0.654,0.6531,0.6532,0.6512,0.65,0.6506,0.6477,0.6479,0.6519,0.6527,0.6533,0.6538,0.6453,0,0,0,0,0,0.6774,0.6765,0.6722,0.6728,0.6718,0.6678,0.667,0.6644,0.6618,0.6608,0.658,0.6556,0.6542,0.6533,0.6517,0.6524,0.6515,0.6531,0.6538,0.6544,0.6546,0.6549,0.6556,0.6482,0.6482,0.6482,0,0,0.6801,0.6773,0.677,0.6739,0.6719,0.6711,0.667,0.6663,0.6657,0.6607,0.6601,0.6579,0.655,0.6551,0.655,0.6534,0.6564,0.6547,0.6552,0.6551,0.6552,0.6559,0.6566,0.6484,0.6483,0.6483,0,0,0.6846,0.6824,0.6827,0.6807,0.6777,0.675,0.6751,0.6713,0.6697,0.669,0.6653,0.6645,0.6621,0.6602,0.6589,0.6628,0.66,0.6624,0.6659,0.6662,0.6668,0.6673,0.6687,0.6693,0.6626,0.6627,0.6627,0,0.6883,0.6869,0.6831,0.6827,0.6815,0.677,0.6773,0.6756,0.6722,0.6715,0.6698,0.6668,0.6645,0.6641,0.6651,0.6642,0.6642,0.6628,0.667,0.6675,0.6679,0.6692,0.6698,0.663,0.6629,0.6629,0.6629,0,0.6917,0.6908,0.6914,0.6884,0.6872,0.6872,0.6834,0.6827,0.6802,0.6777,0.6772,0.6742,0.6721,0.6718,0.6693,0.6711,0.6702,0.6679,0.6648,0.669,0.6701,0.6706,0.6634,0.6633,0.6632,0.6631,0,0,0.6996,0.6945,0.6948,0.6934,0.6898,0.6891,0.6888,0.6868,0.6863,0.6841,0.6838,0.682,0.6798,0.6783,0.6756,0.6759,0.6793,0.6735,0.6733,0.6747,0.6811,0.683,0.6836,0.6774,0.6775,0.6776,0.6814,0,0.7035,0.7029,0.6995,0.6998,0.699,0.6948,0.6946,0.6924,0.6901,0.689,0.6864,0.6852,0.6824,0.6815,0.6816,0.6789,0.6805,0.6785,0.6771,0.6771,0.678,0.6842,0.6862,0.6899,0.6818,0.6819,0.682,0,0.708,0.7062,0.7065,0.703,0.7025,0.7024,0.7003,0.6994,0.6967,0.695,0.6935,0.6905,0.69,0.6873,0.6865,0.6852,0.6844,0.683,0.6831,0.6828,0.6798,0.6842,0.691,0.6916,0.6826,0.6826,0.6825,0,0.7138,0.7115,0.7114,0.7103,0.7062,0.7062,0.7045,0.7018,0.7008,0.6989,0.6982,0.6963,0.6953,0.6939,0.6905,0.6888,0.6902,0.6871,0.6887,0.6889,0.6892,0.6892,0.6961,0.6887,0.6887,0.6887,0.6887,0,0.7185,0.7189,0.7139,0.7139,0.7142,0.7103,0.7106,0.7085,0.7062,0.7056,0.7018,0.7014,0.6969,0.6959,0.6933,0.6931,0.6926,0.6912,0.6905,0.6916,0.6918,0.691,0.6907,0.6888,0.6888,0.6888,0.6887,0,0.7251,0.7218,0.7214,0.7176,0.7166,0.717,0.7137,0.7135,0.711,0.7104,0.71,0.7061,0.7048,0.7012,0.699,0.6972,0.6978,0.6964,0.6987,0.6983,0.7002,0.7001,0.7068,0.7075,0.6996,0.6997,0.6998,0,0.7283,0.7285,0.7248,0.7242,0.7226,0.7217,0.7207,0.7169,0.716,0.7131,0.7133,0.7117,0.7102,0.7083,0.7052,0.7035,0.7021,0.7046,0.7018,0.7029,0.7022,0.7022,0.7023,0.7052,0.7053,0.7054,0.7055,0,0.7345,0.7329,0.7316,0.7298,0.7288,0.7272,0.7253,0.725,0.7207,0.72,0.7186,0.7175,0.7153,0.7137,0.7116,0.7097,0.7069,0.7064,0.7067,0.7078,0.7091,0.7085,0.7004,0.7062,0.7061,0.7061,0.706,0.706,0.7395,0.7395,0.7369,0.7356,0.7339,0.7323,0.7319,0.7295,0.7283,0.7262,0.724,0.723,0.7204,0.7172,0.7156,0.7147,0.7132,0.7136,0.7137,0.7139,0.7144,0.7093,0.7143,0.7142,0.7142,0.7142,0.7142,0,0.7455,0.7436,0.7425,0.7401,0.7392,0.7367,0.7345,0.7339,0.733,0.7309,0.7296,0.7281,0.7266,0.7235,0.7217,0.7216,0.7202,0.7213,0.7212,0.7209,0.7158,0.7158,0.7224,0.7224,0.7224,0.7224,0.7224,0.7224,0.7485,0.7484,0.7465,0.7455,0.7436,0.7426,0.7416,0.7401,0.7384,0.737,0.7358,0.7338,0.7312,0.7293,0.7278,0.7269,0.7265,0.7279,0.7266,0.722,0.7212,0.7205,0.7204,0.7279,0.7279,0.7317,0.7318,0.7318]}]]